When you browse on this site, cookies collect data to enhance your experience and personalize the content and advertising you see.
Visit our Privacy Policy to learn more. By continuing to use the site, you agree to this use of cookies and data.
  • In Hungary
  • List of Countries
  • For 7 days
  • Water Temperature
  • Satellite Maps
  • Weather Map
  • News
  • Weather Widgets
  • user-avatar
    Login

    Hourly Weather Xicotencatl

    Today, 22 February, Friday

    Time Temperature Precipitation Wind Pressure Humidity
    00:00 +21°C° 0 mm 1 mps 748 mmHg 88%
    01:00 +21°C° 0 mm 1 mps 748 mmHg 89%
    02:00 +21°C° 0 mm 1 mps 748 mmHg 90%
    03:00 +21°C° 0 mm 1 mps 748 mmHg 90%
    04:00 +21°C° 0 mm 1 mps 748 mmHg 90%
    05:00 +21°C° 0 mm 1 mps 748 mmHg 90%
    06:00 +22°C° 0 mm 1 mps 749 mmHg 85%
    07:00 +23°C° 0 mm 1 mps 749 mmHg 79%
    08:00 +25°C° 0 mm 2 mps 750 mmHg 74%
    09:00 +27°C° 0 mm 2 mps 750 mmHg 68%
    10:00 +28°C° 0 mm 3 mps 750 mmHg 61%
    11:00 +30°C° 0 mm 4 mps 750 mmHg 55%
    12:00 +32°C° 0 mm 4 mps 749 mmHg 51%
    13:00 +33°C° 0 mm 4 mps 748 mmHg 48%
    14:00 +34°C° 0 mm 5 mps 747 mmHg 45%
    15:00 +33°C° 0 mm 4 mps 747 mmHg 50%
    16:00 +32°C° 0 mm 4 mps 747 mmHg 55%
    17:00 +30°C° 0 mm 3 mps 747 mmHg 60%
    18:00 +29°C° 0 mm 3 mps 748 mmHg 69%
    19:00 +27°C° 0 mm 2 mps 749 mmHg 77%
    20:00 +26°C° 0 mm 2 mps 749 mmHg 85%
    21:00 +26°C° 0 mm 2 mps 750 mmHg 85%
    22:00 +25°C° 0 mm 2 mps 750 mmHg 85%
    23:00 +25°C° 0 mm 2 mps 750 mmHg 85%

    Tomorrow, 23 February, Saturday

    Time Temperature Precipitation Wind Pressure Humidity
    00:00 +25°C° 0 mm 1 mps 750 mmHg 85%
    01:00 +25°C° 0 mm 1 mps 750 mmHg 86%
    02:00 +24°C° 0 mm 1 mps 749 mmHg 86%
    03:00 +24°C° 0 mm 1 mps 749 mmHg 87%
    04:00 +24°C° 0 mm 2 mps 749 mmHg 88%
    05:00 +24°C° 0 mm 2 mps 749 mmHg 89%
    06:00 +24°C° 0 mm 2 mps 750 mmHg 86%
    07:00 +25°C° 0 mm 2 mps 750 mmHg 84%
    08:00 +26°C° 0 mm 2 mps 751 mmHg 81%
    09:00 +27°C° 0 mm 2 mps 751 mmHg 74%
    10:00 +29°C° 0 mm 1 mps 751 mmHg 67%
    11:00 +30°C° 0 mm 1 mps 752 mmHg 61%
    12:00 +31°C° 0 mm 2 mps 751 mmHg 54%
    13:00 +33°C° 0 mm 4 mps 751 mmHg 48%
    14:00 +34°C° 0 mm 5 mps 751 mmHg 41%
    15:00 +32°C° 0.2 mm 5 mps 751 mmHg 49%
    16:00 +29°C° 0.2 mm 5 mps 751 mmHg 57%
    17:00 +27°C° 0.2 mm 5 mps 751 mmHg 65%
    18:00 +26°C° 0 mm 5 mps 752 mmHg 64%
    19:00 +25°C° 0 mm 5 mps 753 mmHg 63%
    20:00 +23°C° 0 mm 5 mps 754 mmHg 63%
    21:00 +23°C° 0 mm 4 mps 754 mmHg 61%
    22:00 +22°C° 0 mm 4 mps 755 mmHg 60%
    23:00 +22°C° 0 mm 4 mps 755 mmHg 59%

    Day after tomorrow, 24 February, Sunday

    Time Temperature Precipitation Wind Pressure Humidity
    00:00 +21°C° 0 mm 4 mps 755 mmHg 57%
    01:00 +21°C° 0 mm 4 mps 755 mmHg 56%
    02:00 +20°C° 0 mm 3 mps 755 mmHg 54%
    03:00 +20°C° 0 mm 3 mps 755 mmHg 51%
    04:00 +20°C° 0 mm 3 mps 756 mmHg 48%
    05:00 +20°C° 0 mm 3 mps 756 mmHg 45%
    06:00 +21°C° 0 mm 4 mps 756 mmHg 40%
    07:00 +22°C° 0 mm 4 mps 757 mmHg 35%
    08:00 +23°C° 0 mm 5 mps 758 mmHg 30%
    09:00 +25°C° 0 mm 4 mps 758 mmHg 27%
    10:00 +27°C° 0 mm 4 mps 758 mmHg 23%
    11:00 +28°C° 0 mm 4 mps 759 mmHg 19%
    12:00 +29°C° 0 mm 3 mps 758 mmHg 19%
    13:00 +29°C° 0 mm 2 mps 757 mmHg 19%
    14:00 +29°C° 0 mm 2 mps 756 mmHg 19%
    15:00 +28°C° 0 mm 2 mps 756 mmHg 22%
    16:00 +27°C° 0 mm 3 mps 756 mmHg 26%
    17:00 +26°C° 0 mm 3 mps 756 mmHg 30%
    18:00 +24°C° 0 mm 3 mps 757 mmHg 35%
    19:00 +21°C° 0 mm 2 mps 758 mmHg 40%
    20:00 +20°C° 0 mm 2 mps 758 mmHg 44%
    21:00 +20°C° 0 mm 1 mps 758 mmHg 45%
    22:00 +20°C° 0 mm 1 mps 758 mmHg 46%
    23:00 +20°C° 0 mm 1 mps 758 mmHg 47%

    25 February, Monday

    Time Temperature Precipitation Wind Pressure Humidity
    00:00 +19°C° 0 mm 1 mps 758 mmHg 47%
    01:00 +19°C° 0 mm 1 mps 758 mmHg 47%
    02:00 +19°C° 0 mm 1 mps 757 mmHg 46%
    03:00 +19°C° 0 mm 1 mps 757 mmHg 47%
    04:00 +19°C° 0 mm 1 mps 757 mmHg 48%
    05:00 +19°C° 0 mm 1 mps 757 mmHg 49%
    06:00 +20°C° 0 mm 1 mps 758 mmHg 47%
    07:00 +19°C° 0 mm 0 mps 758 mmHg 45%
    08:00 +20°C° 0 mm 0 mps 758 mmHg 43%
    09:00 +24°C° 0 mm 1 mps 758 mmHg 42%
    10:00 +25°C° 0 mm 1 mps 758 mmHg 40%
    11:00 +26°C° 0 mm 2 mps 757 mmHg 39%
    12:00 +27°C° 0 mm 2 mps 756 mmHg 40%
    13:00 +28°C° 0 mm 2 mps 755 mmHg 41%
    14:00 +29°C° 0 mm 3 mps 754 mmHg 42%
    15:00 +28°C° 0 mm 3 mps 754 mmHg 46%
    16:00 +27°C° 0 mm 3 mps 754 mmHg 50%
    17:00 +27°C° 0 mm 2 mps 754 mmHg 53%
    18:00 +26°C° 0 mm 2 mps 755 mmHg 59%
    19:00 +25°C° 0 mm 2 mps 755 mmHg 64%
    20:00 +24°C° 0 mm 2 mps 756 mmHg 69%
    21:00 +24°C° 0 mm 2 mps 756 mmHg 72%
    22:00 +23°C° 0 mm 2 mps 756 mmHg 76%
    23:00 +23°C° 0 mm 2 mps 756 mmHg 79%

    26 February, Tuesday

    Time Temperature Precipitation Wind Pressure Humidity
    00:00 +23°C° 0 mm 2 mps 755 mmHg 81%
    01:00 +22°C° 0 mm 1 mps 755 mmHg 82%
    02:00 +22°C° 0 mm 1 mps 754 mmHg 84%
    03:00 +21°C° 0 mm 1 mps 754 mmHg 84%
    04:00 +21°C° 0 mm 1 mps 754 mmHg 84%
    05:00 +21°C° 0 mm 1 mps 754 mmHg 84%
    06:00 +21°C° 0 mm 2 mps 754 mmHg 79%
    07:00 +24°C° 0 mm 2 mps 754 mmHg 73%
    08:00 +25°C° 0 mm 3 mps 755 mmHg 68%
    09:00 +27°C° 0 mm 3 mps 754 mmHg 63%
    10:00 +28°C° 0 mm 4 mps 754 mmHg 57%
    11:00 +30°C° 0 mm 4 mps 753 mmHg 52%
    12:00 +32°C° 0 mm 4 mps 752 mmHg 49%
    13:00 +33°C° 0 mm 4 mps 751 mmHg 47%
    14:00 +34°C° 0 mm 5 mps 750 mmHg 44%
    15:00 +33°C° 0 mm 4 mps 750 mmHg 48%
    16:00 +32°C° 0 mm 4 mps 751 mmHg 51%
    17:00 +30°C° 0 mm 4 mps 751 mmHg 54%
    18:00 +29°C° 0 mm 4 mps 751 mmHg 61%
    19:00 +27°C° 0 mm 4 mps 752 mmHg 68%
    20:00 +26°C° 0 mm 4 mps 753 mmHg 75%
    21:00 +25°C° 0 mm 3 mps 753 mmHg 78%
    22:00 +25°C° 0 mm 3 mps 753 mmHg 81%
    23:00 +24°C° 0 mm 2 mps 753 mmHg 84%

    27 February, Wednesday

    Time Temperature Precipitation Wind Pressure Humidity
    00:00 +24°C° 0 mm 2 mps 752 mmHg 87%
    01:00 +23°C° 0 mm 2 mps 752 mmHg 89%
    02:00 +23°C° 0 mm 1 mps 752 mmHg 92%
    03:00 +23°C° 0 mm 1 mps 752 mmHg 93%
    04:00 +22°C° 0 mm 1 mps 752 mmHg 94%
    05:00 +22°C° 0 mm 1 mps 752 mmHg 95%
    06:00 +23°C° 0 mm 1 mps 752 mmHg 89%
    07:00 +25°C° 0 mm 1 mps 753 mmHg 82%
    08:00 +26°C° 0 mm 2 mps 753 mmHg 76%
    09:00 +27°C° 0 mm 2 mps 752 mmHg 69%
    10:00 +29°C° 0 mm 3 mps 752 mmHg 62%
    11:00 +31°C° 0 mm 3 mps 752 mmHg 56%
    12:00 +32°C° 0 mm 4 mps 751 mmHg 53%
    13:00 +33°C° 0 mm 4 mps 750 mmHg 51%
    14:00 +34°C° 0 mm 4 mps 749 mmHg 49%
    15:00 +33°C° 0 mm 4 mps 749 mmHg 53%
    16:00 +32°C° 0 mm 4 mps 749 mmHg 57%
    17:00 +30°C° 0 mm 4 mps 749 mmHg 60%
    18:00 +29°C° 0 mm 3 mps 749 mmHg 68%
    19:00 +27°C° 0 mm 3 mps 750 mmHg 75%
    20:00 +26°C° 0 mm 3 mps 751 mmHg 83%
    21:00 +25°C° 0 mm 3 mps 750 mmHg 85%
    22:00 +25°C° 0 mm 2 mps 750 mmHg 87%
    23:00 +25°C° 0 mm 2 mps 750 mmHg 89%
    Show more